This demonstration page uses our WeatherBlox Daily Observations layout. Learn more.

Left ArrowRight Arrow

39.08367, -84.50855

Hourly Observations for September 28, 2015

Temp ( °F °C ) Dew Point ( °F °C ) Humidity (%) Winds ( mph kmh ) Pressure ( in mb ) Visibility ( mi km ) Precip ( " mm )
12:53 am 00:53 Clear 62 16.7 62 16.7 100 100 Calm 30.10 1019 10 16 0.00 0.00
1:53 am 01:53 Mostly Clear 62 16.7 62 16.7 100 100 Calm 30.09 1019 10 16 0.00 0.00
2:31 am 02:31 Clear with Mist and Fog 61 16.1 61 16.1 100 100 NE 3 6 30.06 1018 3 4 0.00 0.00
2:38 am 02:38 Clear 62 16.7 62 16.7 100 100 NNE 3 6 30.06 1018 9 14 0.00 0.00
2:53 am 02:53 Mostly Cloudy with Mist and Fog 61 16.1 61 16.1 100 100 NE 3 6 30.06 1018 4 6 0.00 0.00
3:43 am 03:43 Clear with Mist and Fog 60 15.6 60 15.6 100 100 Calm 30.03 1017 2 3 0.00 0.00
3:53 am 03:53 Clear with Mist and Fog 61 16.1 61 16.1 100 100 Calm 30.05 1018 4 6 0.00 0.00
4:32 am 04:32 Clear with Mist and Fog 61 16 61 16 100 100 Calm 30.03 1017 2 3 0.00 0.00
4:41 am 04:41 Clear with Mist and Fog 60 15.6 60 15.6 100 100 Calm 30.03 1017 4 6 0.00 0.00
4:53 am 04:53 Clear 61 16.1 61 16.1 100 100 Calm 30.05 1018 8 13 0.00 0.00
5:07 am 05:07 Clear with Mist and Fog 59 15 59 15 100 100 Calm 30.03 1017 2 3 0.00 0.00
5:18 am 05:18 Clear with Mist and Fog 61 16 61 16 100 100 Calm 30.03 1017 4 6 0.00 0.00
5:30 am 05:30 Clear with Mist and Fog 61 16 61 16 100 100 Calm 30.03 1017 2 3 0.00 0.00
5:39 am 05:39 Clear with Mist and Fog 60 15.6 60 15.6 100 100 Calm 30.03 1017 3 5 0.00 0.00
5:53 am 05:53 Clear with Mist and Fog 60 15.6 60 15.6 100 100 NE 3 6 30.06 1018 5 8 0.00 0.00
6:10 am 06:10 Clear with Mist and Fog 57 14 57 14 100 100 NE 3 6 30.06 1018 4 6 0.00 0.00
6:53 am 06:53 Clear 60 15.6 60 15.6 100 100 NE 3 6 30.07 1018 9 14 0.00 0.00
7:07 am 07:07 Mostly Clear with Mist and Fog 59 15 59 15 100 100 ENE 3 6 30.09 1019 2 2 0.00 0.00
7:14 am 07:14 Clear 59 15 59 15 100 100 Calm 30.09 1019 9 14 0.00 0.00
7:53 am 07:53 Sunny 59 15 59 15 100 100 NNE 3 6 30.08 1019 9 14 0.00 0.00
8:53 am 08:53 Sunny 64 17.8 63 17.2 96 96 NE 5 7 30.08 1019 10 16 0.00 0.00
9:53 am 09:53 Sunny 68 20 64 17.8 87 87 Calm 30.09 1019 10 16 0.00 0.00
10:53 am 10:53 Sunny 73 22.8 66 18.9 79 79 Calm 30.08 1019 10 16 0.00 0.03
11:53 am 11:53 Sunny 77 25 66 18.9 69 69 ESE 3 6 30.06 1018 10 16 0.00 0.00
12:53 pm 12:53 Mostly Sunny 79 26.1 67 19.4 67 67 VRB 3 6 30.05 1018 10 16 0.00 0.00
1:53 pm 13:53 Mostly Sunny 80 26.7 67 19.4 64 64 W 5 7 30.02 1017 10 16 0.00 0.00
2:53 pm 14:53 Partly Cloudy 82 27.8 66 18.9 58 58 NNE 3 6 29.99 1016 10 16 0.00 0.00
3:53 pm 15:53 Partly Cloudy 82 27.8 66 18.9 58 58 SW 7 11 29.98 1015 10 16 0.00 0.00
4:53 pm 16:53 Mostly Sunny 82 27.8 66 18.9 58 58 SSW 3 6 29.96 1015 10 16 0.00 0.00
5:53 pm 17:53 Mostly Sunny 79 26.1 70 21.1 74 74 Calm 29.96 1015 10 16 0.00 0.00
6:53 pm 18:53 Mostly Sunny 75 23.9 69 20.6 82 82 Calm 29.96 1015 10 16 0.00 0.00
7:53 pm 19:53 Mostly Cloudy 72 22.2 68 20 87 87 Calm 29.96 1015 10 16 0.00 0.00
8:53 pm 20:53 Clear 71 21.7 67 19.4 87 87 Calm 29.98 1015 10 16 0.00 0.00
9:53 pm 21:53 Partly Cloudy with Light Rain 71 21.7 68 20 90 90 Calm 29.98 1015 10 16 0.00 0.03
10:53 pm 22:53 Mostly Clear 69 20.6 68 20 96 96 Calm 29.98 1015 10 16 0.00 0.03
11:53 pm 23:53 Mostly Clear 69 20.6 69 20.6 100 100 Calm 29.98 1015 10 16 0.00 0.00

Powered by AerisWeather